EW7771 Weather Reports


Display with metric or nautical units.
time (UTC)temp
F
wind
direction
speed
MPH
gust
MPH
rain 1hr
in
rain 24hr
in
rain mn
in
humidity
%
barometer
mb
20260905201856 67 277 0.0 2.0 0.00 0.13 0.01 73 1015.8
20260905201357 66 267 0.0 4.0 0.00 0.13 0.01 71 1015.8
20260905200858 66 170 1.0 4.0 0.00 0.13 0.01 75 1015.9
20260905200356 66 355 1.0 3.0 0.00 0.13 0.01 75 1015.9
20260905195855 66 350 0.0 3.0 0.00 0.13 0.01 74 1015.9
20260905195355 66 0 0.0 2.0 0.00 0.13 0.01 75 1015.8
20260905194852 66 342 0.0 2.0 0.00 0.13 0.01 77 1015.9
20260905194400 66 9 0.0 2.0 0.00 0.13 0.01 76 1015.9
20260905193902 66 5 0.0 2.0 0.00 0.13 0.01 74 1015.9
20260905193401 66 5 1.0 6.0 0.00 0.13 0.01 76 1016.0
20260905192855 65 16 1.0 6.0 0.00 0.13 0.01 78 1016.1
20260905192606 65 5 0.0 2.0 0.00 0.13 0.01 78 1016.1
20260905192105 65 320 0.0 2.0 0.00 0.13 0.01 77 1016.1
20260905191558 65 305 0.0 1.0 0.00 0.13 0.01 78 1016.1
20260905190830 65 67 1.0 5.0 0.00 0.13 0.01 78 1016.2
20260905190552 65 67 1.0 5.0 0.00 0.13 0.01 76 1016.2
20260905185819 65 341 1.0 5.0 0.00 0.13 0.01 76 1016.3
20260905185313 65 50 1.0 5.0 0.00 0.13 0.01 78 1016.3
20260905184807 64 273 0.0 3.0 0.00 0.13 0.01 79 1016.3
20260905184300 64 321 0.0 3.0 0.00 0.13 0.01 84 1016.3
20260905183751 63 82 0.0 2.0 0.00 0.13 0.01 84 1016.4
20260905183249 62 55 0.0 2.0 0.00 0.13 0.01 85 1016.4
20260905183002 61 15 0.0 2.0 0.00 0.13 0.01 87 1016.5
20260905182240 61 44 0.0 1.0 0.00 0.13 0.01 89 1016.6
20260905181731 60 45 1.0 3.0 0.00 0.13 0.01 87 1016.7
20260905181225 59 19 1.0 3.0 0.00 0.13 0.01 89 1016.6
20260905180719 58 5 0.0 2.0 0.00 0.13 0.01 93 1016.7
20260905180216 57 333 0.0 3.0 0.00 0.13 0.01 98 1016.7
20260905175707 56 333 0.0 3.0 0.00 0.13 0.01 98 1016.7
20260905175157 56 71 1.0 3.0 0.00 0.13 0.01 98 1016.7
20260905174922 55 108 1.0 3.0 0.00 0.13 0.01 98 1016.7
20260905174147 55 49 0.0 3.0 0.00 0.13 0.01 98 1016.7
20260905173639 55 319 0.0 1.0 0.00 0.13 0.01 98 1016.7
20260905173137 55 312 0.0 1.0 0.00 0.13 0.01 98 1016.7
20260905172630 54 312 0.0 0.0 0.00 0.13 0.01 98 1016.7
20260905172125 54 312 0.0 0.0 0.00 0.13 0.01 98 1016.8
20260905171617 53 312 0.0 0.0 0.00 0.13 0.01 98 1016.7
20260905171113 53 312 0.0 0.0 0.00 0.13 0.01 98 1016.7
20260905170606 53 312 0.0 0.0 0.00 0.13 0.01 98 1016.7
20260905170101 53 312 0.0 0.0 0.00 0.13 0.01 98 1016.8
20260905165553 52 312 0.0 0.0 0.00 0.13 0.01 98 1016.8
20260905165049 52 312 0.0 1.0 0.00 0.13 0.01 98 1016.8
20260905164543 52 312 0.0 2.0 0.00 0.13 0.01 98 1016.8
20260905164037 51 312 0.0 2.0 0.00 0.13 0.01 98 1016.9
20260905163533 51 298 0.0 1.0 0.00 0.13 0.01 98 1016.8
20260905163508 51 298 0.0 1.0 0.00 0.13 0.01 98 1016.8
20260905162515 51 298 0.0 0.0 0.00 0.13 0.01 98 1016.9
20260905162013 50 298 0.0 0.0 0.00 0.13 0.01 98 1016.9
20260905161001 50 298 0.0 1.0 0.00 0.13 0.01 98 1016.9
20260905160455 49 298 0.0 1.0 0.00 0.13 0.01 98 1016.9
20260905155949 49 254 0.0 0.0 0.00 0.13 0.01 98 1016.9
20260905155445 49 254 0.0 0.0 0.00 0.13 0.01 98 1016.9
20260905154937 49 254 0.0 0.0 0.00 0.13 0.01 98 1017.0
20260905154431 48 254 0.0 0.0 0.00 0.13 0.01 98 1016.9
20260905153930 48 254 0.0 0.0 0.00 0.13 0.01 98 1016.9
20260905153429 48 254 0.0 0.0 0.00 0.13 0.01 97 1016.9
20260905152926 48 254 0.0 0.0 0.00 0.13 0.01 97 1016.9
20260905152428 48 254 0.0 0.0 0.00 0.13 0.01 98 1016.8
20260905151927 48 254 0.0 0.0 0.00 0.13 0.01 97 1016.8
20260905151424 47 254 0.0 0.0 0.00 0.13 0.01 97 1016.8
20260905151151 47 254 0.0 0.0 0.00 0.13 0.01 98 1016.7
20260905150422 47 254 0.0 0.0 0.00 0.13 0.01 98 1016.7
20260905150147 47 254 0.0 0.0 0.00 0.13 0.01 97 1016.7
20260905145658 47 254 0.0 0.0 0.00 0.13 0.01 97 1016.6
20260905144922 47 254 0.0 0.0 0.00 0.13 0.01 97 1016.6
20260905144645 47 254 0.0 0.0 0.00 0.13 0.01 97 1016.6
20260905143920 47 230 0.0 0.0 0.00 0.13 0.01 97 1016.5
20260905143417 46 230 0.0 0.0 0.00 0.13 0.01 97 1016.5
20260905142919 46 230 0.0 1.0 0.00 0.13 0.01 97 1016.5
20260905142417 46 230 0.0 1.0 0.00 0.13 0.01 97 1016.5
20260905141920 46 230 0.0 0.0 0.00 0.13 0.01 97 1016.4
20260905141417 46 230 0.0 0.0 0.00 0.13 0.01 97 1016.5
20260905140918 46 230 0.0 0.0 0.00 0.13 0.01 97 1016.4
20260905140418 46 231 0.0 0.0 0.00 0.13 0.01 97 1016.4
20260905135922 46 231 0.0 0.0 0.00 0.13 0.01 97 1016.4
20260905135416 46 231 0.0 1.0 0.00 0.13 0.01 97 1016.4
20260905134916 46 231 0.0 1.0 0.00 0.13 0.01 97 1016.3
20260905134422 46 231 0.0 0.0 0.00 0.13 0.01 97 1016.2
20260905133915 46 231 0.0 0.0 0.00 0.13 0.01 97 1016.2
20260905133412 46 231 0.0 0.0 0.00 0.14 0.01 97 1016.1
20260905132910 46 231 0.0 1.0 0.00 0.14 0.01 97 1016.2
20260905132636 46 231 0.0 1.0 0.00 0.14 0.01 97 1016.1
20260905131908 46 231 0.0 0.0 0.00 0.14 0.01 97 1016.2
20260905131408 46 231 0.0 2.0 0.00 0.14 0.01 97 1016.2
20260905130909 46 231 0.0 2.0 0.00 0.14 0.01 97 1016.1
20260905130409 46 240 0.0 2.0 0.00 0.14 0.01 97 1016.2
20260905125909 46 213 0.0 2.0 0.00 0.14 0.01 97 1016.2
20260905125412 46 211 0.0 2.0 0.00 0.14 0.01 97 1016.1
20260905124914 46 211 1.0 2.0 0.00 0.14 0.01 97 1016.1
20260905124406 46 196 0.0 2.0 0.00 0.14 0.01 97 1016.1
20260905124129 47 202 0.0 1.0 0.00 0.14 0.01 97 1016.1
20260905123405 47 203 0.0 2.0 0.00 0.14 0.01 97 1016.1
20260905122858 47 204 0.0 2.0 0.00 0.14 0.01 97 1016.1
20260905122353 47 188 0.0 1.0 0.00 0.14 0.01 97 1016.1
20260905121846 47 188 0.0 2.0 0.00 0.14 0.01 97 1016.1
20260905121341 47 189 0.0 2.0 0.00 0.14 0.01 97 1016.1
20260905120834 47 192 1.0 2.0 0.00 0.14 0.01 97 1016.2
20260905120559 47 214 1.0 3.0 0.00 0.14 0.01 97 1016.2
20260905115822 47 191 1.0 3.0 0.00 0.14 0.01 97 1016.2
20260905115317 47 216 0.0 3.0 0.00 0.14 0.01 97 1016.2
20260905115034 47 187 0.0 2.0 0.00 0.14 0.01 97 1016.2
20260905114304 47 194 1.0 4.0 0.00 0.14 0.01 97 1016.2
20260905113758 46 238 0.0 4.0 0.00 0.14 0.01 97 1016.2
20260905113255 46 200 0.0 1.0 0.00 0.14 0.01 97 1016.2
20260905112746 46 201 0.0 2.0 0.00 0.14 0.01 97 1016.2
20260905112243 46 201 0.0 2.0 0.00 0.14 0.01 97 1016.1
20260905111743 46 203 0.0 2.0 0.00 0.14 0.01 97 1016.1
20260905111243 46 198 1.0 2.0 0.00 0.14 0.01 97 1016.1
20260905110740 46 214 0.0 2.0 0.00 0.14 0.01 97 1016.1
20260905110241 46 201 0.0 2.0 0.00 0.14 0.01 97 1016.1
20260905105740 46 202 0.0 2.0 0.00 0.14 0.01 97 1016.1
20260905105239 46 211 0.0 2.0 0.00 0.14 0.01 97 1016.1
20260905104744 47 211 1.0 2.0 0.00 0.14 0.01 97 1016.0
20260905104238 47 202 1.0 3.0 0.00 0.14 0.01 97 1016.1
20260905103733 46 215 1.0 3.0 0.00 0.14 0.01 97 1016.0
20260905103241 47 207 0.0 2.0 0.00 0.14 0.01 97 1016.0
20260905103234 47 213 0.0 3.0 0.00 0.14 0.01 97 1016.0
20260905102230 47 188 0.0 2.0 0.00 0.14 0.01 97 1016.0
20260905101728 47 188 1.0 2.0 0.00 0.14 0.01 97 1016.0
20260905101453 47 205 1.0 3.0 0.00 0.14 0.01 97 1016.0
20260905100729 47 202 1.0 3.0 0.00 0.14 0.01 97 1016.0
20260905100228 47 183 1.0 4.0 0.00 0.14 0.01 97 1015.9
20260905095729 47 233 1.0 4.0 0.00 0.14 0.01 96 1015.9
20260905095226 47 226 0.0 3.0 0.00 0.14 0.01 97 1015.9
20260905094730 47 206 0.0 1.0 0.00 0.14 0.01 97 1015.9
20260905094225 47 206 1.0 2.0 0.00 0.14 0.01 97 1015.9
20260905093722 47 212 1.0 3.0 0.00 0.14 0.01 96 1015.9
20260905093218 47 203 1.0 3.0 0.00 0.14 0.01 96 1015.9
20260905092710 47 202 0.0 2.0 0.00 0.14 0.01 96 1015.9
20260905092203 47 205 1.0 3.0 0.00 0.14 0.01 96 1015.9
20260905091655 47 205 1.0 3.0 0.00 0.14 0.01 97 1015.9
20260905091153 47 214 0.0 3.0 0.00 0.14 0.01 97 1015.9
20260905090646 48 213 0.0 2.0 0.00 0.14 0.01 96 1015.9
20260905090139 48 209 0.0 2.0 0.00 0.14 0.01 96 1015.9
20260905085854 48 209 0.0 2.0 0.00 0.14 0.01 96 1015.8
20260905085130 48 208 0.0 2.0 0.00 0.14 0.01 96 1015.8
20260905084621 48 209 1.0 2.0 0.00 0.14 0.01 96 1015.8
20260905084116 48 205 1.0 2.0 0.00 0.14 0.01 97 1015.8
20260905083610 48 202 1.0 2.0 0.00 0.14 0.01 97 1015.7
20260905083106 48 213 0.0 2.0 0.00 0.14 0.01 96 1015.7
20260905082559 48 209 0.0 2.0 0.00 0.14 0.01 96 1015.7
20260905082101 48 209 1.0 2.0 0.00 0.14 0.01 97 1015.6
20260905081822 48 208 1.0 2.0 0.00 0.14 0.01 97 1015.7
20260905081058 49 198 0.0 2.0 0.00 0.14 0.01 97 1015.6
20260905080559 49 199 0.0 3.0 0.00 0.14 0.01 97 1015.6
20260905080056 49 207 1.0 4.0 0.01 0.14 0.01 97 1015.6
20260905075818 49 190 1.0 4.0 0.01 0.14 0.01 96 1015.6
20260905075053 49 222 1.0 3.0 0.01 0.14 0.01 96 1015.6
20260905074554 49 200 1.0 3.0 0.01 0.14 0.01 96 1015.6
20260905074053 49 202 0.0 1.0 0.01 0.14 0.01 96 1015.7
20260905073554 49 202 0.0 1.0 0.01 0.14 0.01 96 1015.6
20260905073054 49 202 0.0 2.0 0.01 0.14 0.01 97 1015.5
20260905072547 49 202 0.0 2.0 0.01 0.14 0.01 97 1015.6
20260905072043 49 183 0.0 2.0 0.01 0.14 0.01 97 1015.5
20260905071536 49 177 0.0 0.0 0.01 0.14 0.01 97 1015.5
20260905071029 50 177 0.0 1.0 0.01 0.14 0.01 97 1015.5
20260905070523 50 177 0.0 1.0 0.01 0.14 0.01 97 1015.4
20260905070017 50 177 0.0 2.0 0.00 0.13 0.00 97 1015.3
20260905065511 50 177 1.0 2.0 0.00 0.13 0.13 97 1015.3
20260905065006 50 180 1.0 2.0 0.00 0.13 0.13 97 1015.3
20260905064459 50 208 0.0 1.0 0.00 0.13 0.13 97 1015.3
20260905063953 50 208 0.0 2.0 0.00 0.13 0.13 97 1015.2
20260905063447 50 208 1.0 3.0 0.00 0.13 0.13 97 1015.2
20260905062940 50 208 1.0 3.0 0.00 0.13 0.13 97 1015.2
20260905062434 50 209 0.0 2.0 0.00 0.13 0.13 97 1015.2
20260905061929 50 217 0.0 2.0 0.00 0.13 0.13 97 1015.1
20260905061423 50 217 0.0 2.0 0.00 0.13 0.13 97 1015.1
20260905060917 50 217 0.0 2.0 0.00 0.13 0.13 96 1015.1
20260905060411 50 180 1.0 3.0 0.00 0.13 0.13 97 1015.1
20260905055905 50 219 1.0 3.0 0.00 0.13 0.13 97 1015.2
20260905055400 50 202 1.0 3.0 0.00 0.13 0.13 97 1015.2
20260905054853 50 205 1.0 3.0 0.00 0.13 0.13 97 1015.2
20260905054347 50 198 1.0 3.0 0.00 0.13 0.13 96 1015.1
20260905054104 50 213 1.0 3.0 0.00 0.13 0.13 96 1015.1
20260905053336 51 217 0.0 2.0 0.00 0.13 0.13 96 1015.2
20260905053047 51 217 0.0 1.0 0.00 0.13 0.13 96 1015.2
20260905052520 51 218 0.0 0.0 0.00 0.13 0.13 96 1015.2
20260905052415 51 218 0.0 1.0 0.00 0.13 0.13 96 1015.2
20260905051312 51 218 0.0 2.0 0.00 0.13 0.13 96 1015.2
20260905050805 51 218 1.0 3.0 0.00 0.13 0.13 96 1015.2
20260905050259 51 211 1.0 3.0 0.00 0.13 0.13 96 1015.2
20260905045753 51 202 0.0 2.0 0.00 0.14 0.13 96 1015.3
20260905045247 51 202 0.0 1.0 0.00 0.14 0.13 96 1015.4
20260905044742 51 202 0.0 0.0 0.00 0.14 0.13 96 1015.4
20260905044234 51 202 0.0 1.0 0.00 0.14 0.13 96 1015.4
20260905043737 51 202 0.0 1.0 0.00 0.14 0.13 96 1015.4
20260905043456 51 202 0.0 0.0 0.00 0.14 0.13 96 1015.3
20260905043008 51 202 0.0 1.0 0.00 0.14 0.13 96 1015.3
20260905042229 51 202 0.0 2.0 0.00 0.15 0.13 96 1015.3
20260905041727 51 202 0.0 2.0 0.00 0.15 0.13 96 1015.2
20260905041227 52 202 0.0 2.0 0.00 0.16 0.13 96 1015.3
20260905040727 52 202 0.0 2.0 0.00 0.17 0.13 96 1015.3
20260905040232 52 202 0.0 2.0 0.00 0.18 0.13 96 1015.3
20260905035726 52 202 0.0 2.0 0.00 0.19 0.13 96 1015.2
20260905035226 52 174 0.0 0.0 0.00 0.20 0.13 96 1015.2
20260905034722 52 174 0.0 0.0 0.00 0.21 0.13 96 1015.1
20260905034220 52 174 0.0 0.0 0.00 0.22 0.13 96 1015.0
20260905033719 52 174 0.0 1.0 0.00 0.23 0.13 96 1015.0
20260905033217 52 174 0.0 1.0 0.00 0.23 0.13 96 1015.0
20260905032719 53 174 0.0 1.0 0.00 0.23 0.13 96 1015.0
20260905032216 53 174 0.0 1.0 0.00 0.23 0.13 96 1014.9
20260905031715 53 174 0.0 1.0 0.00 0.23 0.13 96 1014.9
20260905031217 53 174 0.0 1.0 0.00 0.23 0.13 96 1014.8
20260905030714 53 174 0.0 1.0 0.00 0.23 0.13 96 1014.8
20260905030222 53 174 0.0 0.0 0.00 0.23 0.13 96 1014.7
20260905025717 53 174 0.0 0.0 0.00 0.23 0.13 96 1014.7
20260905025209 53 174 0.0 2.0 0.00 0.23 0.13 96 1014.6
20260905024705 53 174 0.0 2.0 0.00 0.23 0.13 96 1014.6
20260905024200 53 174 0.0 0.0 0.00 0.23 0.13 96 1014.6
20260905023701 53 174 0.0 2.0 0.00 0.23 0.13 96 1014.5
20260905023431 53 174 1.0 2.0 0.00 0.23 0.13 96 1014.5
20260905022700 53 174 1.0 2.0 0.00 0.23 0.13 96 1014.4
20260905022158 54 221 1.0 3.0 0.00 0.23 0.13 96 1014.4
20260905021927 54 223 1.0 3.0 0.00 0.23 0.13 96 1014.4
20260905021157 54 235 0.0 1.0 0.00 0.23 0.13 96 1014.4
20260905020658 54 235 0.0 1.0 0.00 0.23 0.13 96 1014.5
20260905020425 54 235 0.0 1.0 0.00 0.23 0.13 96 1014.5
20260905015657 54 235 0.0 0.0 0.00 0.23 0.13 96 1014.5
20260905015424 54 235 0.0 0.0 0.00 0.23 0.13 96 1014.4
20260905014658 54 235 0.0 1.0 0.00 0.23 0.13 96 1014.5
20260905014157 54 235 0.0 3.0 0.00 0.23 0.13 96 1014.5
20260905013921 54 236 0.0 3.0 0.00 0.23 0.13 96 1014.5
20260905013158 54 211 0.0 1.0 0.00 0.23 0.13 96 1014.5
20260905012655 54 225 0.0 1.0 0.00 0.23 0.13 96 1014.5
20260905012157 54 225 0.0 2.0 0.00 0.23 0.13 96 1014.5
20260905011656 54 225 0.0 2.0 0.01 0.23 0.13 96 1014.5
20260905011156 54 136 0.0 0.0 0.02 0.23 0.13 95 1014.6
20260905010650 54 135 0.0 0.0 0.03 0.24 0.13 96 1014.6
20260905010142 54 135 0.0 0.0 0.04 0.24 0.13 96 1014.5
20260905005637 54 135 0.0 0.0 0.04 0.24 0.13 95 1014.5
20260905005403 54 135 0.0 0.0 0.06 0.25 0.13 95 1014.5
20260905004625 54 135 0.0 0.0 0.06 0.27 0.13 95 1014.5
20260905004118 55 135 0.0 1.0 0.07 0.29 0.13 95 1014.4
20260905003612 55 135 0.0 1.0 0.08 0.30 0.13 94 1014.2
20260905003106 55 202 0.0 4.0 0.09 0.31 0.13 95 1014.1
20260905002602 55 202 1.0 4.0 0.09 0.32 0.13 94 1014.1
20260905002054 55 229 0.0 4.0 0.10 0.32 0.13 94 1014.1
20260905001548 55 212 0.0 2.0 0.09 0.31 0.12 94 1014.1
20260905001042 55 212 0.0 2.0 0.08 0.31 0.11 93 1014.1
20260905000537 56 211 0.0 2.0 0.07 0.30 0.10 93 1014.1
20260905000030 56 212 0.0 2.0 0.06 0.30 0.09 92 1014.0
20260904235524 56 159 0.0 1.0 0.05 0.30 0.08 92 1014.0
20260904235019 56 169 0.0 3.0 0.04 0.30 0.07 91 1013.8
20260904234514 56 215 1.0 3.0 0.04 0.31 0.07 90 1013.8
20260904234006 57 198 1.0 3.0 0.03 0.32 0.06 89 1014.0
20260904233459 57 215 2.0 11.0 0.02 0.31 0.05 87 1014.0
20260904232954 57 197 3.0 11.0 0.01 0.31 0.04 85 1014.0
20260904232447 58 222 4.0 11.0 0.00 0.31 0.03 84 1014.0
20260904231942 58 182 5.0 11.0 0.00 0.32 0.03 82 1014.0
20260904231437 59 221 5.0 13.0 0.00 0.33 0.03 82 1013.8
20260904230931 59 178 4.0 13.0 0.00 0.33 0.03 81 1013.6
20260904230424 60 178 4.0 12.0 0.00 0.33 0.03 87 1013.6
20260904225918 60 193 3.0 8.0 0.00 0.33 0.03 91 1013.3
20260904225645 60 179 1.0 8.0 0.00 0.33 0.03 92 1013.2
20260904225140 60 186 0.0 2.0 0.00 0.33 0.03 94 1012.9
20260904224400 60 172 0.0 0.0 0.00 0.33 0.03 94 1012.8
20260904223854 60 172 0.0 0.0 0.00 0.33 0.03 95 1012.7
20260904223347 60 172 0.0 1.0 0.00 0.33 0.03 94 1012.6
20260904222843 60 172 0.0 1.0 0.00 0.33 0.03 94 1012.4
20260904222609 60 172 0.0 0.0 0.00 0.33 0.03 94 1012.3
20260904221830 61 172 0.0 0.0 0.00 0.33 0.03 94 1012.3
20260904221324 61 172 0.0 0.0 0.01 0.33 0.03 94 1012.4
20260904220819 61 172 0.0 0.0 0.01 0.33 0.03 94 1012.4
20260904220312 61 172 0.0 0.0 0.01 0.33 0.03 93 1012.4
20260904215806 61 172 0.0 0.0 0.02 0.33 0.03 93 1012.4
20260904215300 61 172 0.0 0.0 0.02 0.33 0.03 93 1012.3
20260904215242 61 172 0.0 0.0 0.02 0.33 0.03 93 1012.2
20260904214249 61 172 0.0 0.0 0.02 0.33 0.03 92 1012.2
20260904213741 61 172 0.0 0.0 0.02 0.33 0.03 91 1012.2
20260904213236 61 172 0.0 0.0 0.02 0.33 0.03 92 1012.1
20260904212731 61 172 0.0 0.0 0.02 0.33 0.03 94 1012.1
20260904212459 61 172 0.0 0.0 0.02 0.33 0.03 94 1012.1
20260904211718 61 172 0.0 0.0 0.02 0.33 0.03 95 1012.1
20260904211212 60 172 0.0 0.0 0.01 0.32 0.02 94 1012.1
20260904211203 60 172 0.0 0.0 0.01 0.32 0.02 93 1012.1
20260904210200 60 172 0.0 1.0 0.01 0.32 0.02 91 1012.1
20260904205654 60 172 0.0 2.0 0.00 0.31 0.01 91 1012.3
20260904205148 61 172 1.0 2.0 0.00 0.31 0.01 91 1012.3
20260904204644 61 176 0.0 2.0 0.00 0.32 0.01 90 1012.3
20260904204136 61 176 0.0 2.0 0.00 0.32 0.01 91 1012.2
20260904203630 61 176 1.0 2.0 0.00 0.32 0.01 88 1012.2
20260904203350 61 177 1.0 3.0 0.00 0.32 0.01 87 1012.2
20260904202619 61 188 1.0 3.0 0.00 0.32 0.01 87 1012.1
20260904202328 61 134 1.0 3.0 0.00 0.32 0.01 89 1012.1